Date String (YYYY-MM-DD hh:mm:ss) UTC,Instrument flags,absolute air pressure of the measurement (hPa),sample flow rate (lpm),inlet stack bypass flow (lpm),air temperature of the measurement (°C),ambient temperature measured by the external sensor (°C),aerosol sample conditioner tube jacket temperature (°C),OPC LED temperature (°C),internal box temperature (°C),relative humidity of the measurement (%),span deviation,mass concentration of particles derived from Lorenz-Mie calculation of OPC scattering (μg/m³),mass concentration of particles derived from Lorenz-Mie calculation of OPC scattering (μg/m³),mass concentration of particles derived from Lorenz-Mie calculation of OPC scattering (μg/m³)
DateTimeUTC,F1_M11,P_M11,Q1_M11,Q2_M11,T1_M11,T2_M11,T3_M11,T4_M11,T5_M11,U1_M11,ZSPAN_M11,X0_M11,X2_M11,X1_M11
2023-12-08 03:00:00,SystemResetWarning,0818.9,5.00,000.00,024.7,023.8,000.0,033.0,026.1,10.5,0000.0,0004.17,0001.49,0001.02
2023-12-08 03:01:00,SystemResetWarning,0819.0,5.00,000.00,024.7,023.8,000.0,033.0,026.1,10.5,0000.0,0004.05,0001.46,0001.01
2023-12-08 03:02:00,SystemResetWarning,0819.0,5.00,000.00,024.7,023.8,000.0,033.0,026.1,10.6,0000.0,0004.36,0001.42,0001.01
2023-12-08 03:03:00,SystemResetWarning,0819.1,5.00,000.00,024.8,023.8,000.0,033.0,026.2,10.5,0000.0,0004.60,0001.41,0001.01
2023-12-08 03:04:00,SystemResetWarning,0819.1,5.01,000.00,024.8,023.8,000.0,033.0,026.1,10.5,0000.0,0005.08,0001.42,0001.00
2023-12-08 03:05:00,SystemResetWarning,0819.2,5.01,000.00,024.8,023.8,000.0,033.0,026.1,10.5,0000.0,0004.31,0001.40,0001.00
2023-12-08 03:06:00,SystemResetWarning,0819.1,5.00,000.00,024.8,023.8,000.0,033.0,026.1,10.6,0000.0,0004.32,0001.40,0001.00
2023-12-08 03:07:00,SystemResetWarning,0819.0,4.99,000.00,024.8,023.8,000.0,033.0,026.1,10.8,0000.0,0004.11,0001.41,0001.00
2023-12-08 03:08:00,SystemResetWarning,0819.1,5.00,000.00,024.8,023.8,000.0,033.0,026.1,11.0,0000.0,0004.04,0001.39,0001.01
2023-12-08 03:09:00,SystemResetWarning,0819.0,4.99,000.00,024.8,023.8,000.0,033.0,026.1,11.0,0000.0,0003.93,0001.39,0001.00
2023-12-08 03:10:00,SystemResetWarning,0819.1,5.00,000.00,024.8,023.8,000.0,033.0,026.1,11.1,0000.0,0003.94,0001.36,0001.01
2023-12-08 03:11:00,SystemResetWarning,0819.0,5.00,000.00,024.8,023.8,000.0,033.0,026.1,11.0,0000.0,0004.11,0001.37,0001.01
2023-12-08 03:12:00,SystemResetWarning,0819.1,5.00,000.00,024.8,023.8,000.0,033.1,026.2,10.8,0000.0,0004.01,0001.35,0001.01
2023-12-08 03:13:00,SystemResetWarning,0819.0,5.01,000.00,024.8,023.8,000.0,033.1,026.2,10.6,0000.0,0003.84,0001.37,0001.01
2023-12-08 03:14:00,SystemResetWarning,0819.1,5.00,000.00,024.8,023.8,000.0,033.1,026.1,10.7,0000.0,0004.30,0001.39,0001.01
2023-12-08 03:15:00,SystemResetWarning,0819.0,5.00,000.00,024.8,023.8,000.0,033.1,026.1,10.7,0000.0,0003.72,0001.38,0001.00
2023-12-08 03:16:00,SystemResetWarning,0819.1,5.00,000.00,024.8,023.8,000.0,033.1,026.1,10.6,0000.0,0003.66,0001.41,0001.01
2023-12-08 03:17:00,SystemResetWarning,0818.9,5.00,000.00,024.8,023.8,000.0,033.1,026.1,10.7,0000.0,0003.63,0001.41,0001.02
2023-12-08 03:18:00,SystemResetWarning,0818.8,5.00,000.00,024.8,023.8,000.0,033.1,026.1,10.8,0000.0,0004.48,0001.40,0001.03
2023-12-08 03:19:00,SystemResetWarning,0819.0,5.00,000.00,024.8,023.8,000.0,033.1,026.1,10.9,0000.0,0005.02,0001.45,0001.04
2023-12-08 03:20:00,SystemResetWarning,0818.8,5.00,000.00,024.8,023.8,000.0,033.1,026.1,10.9,0000.0,0005.14,0001.51,0001.06
2023-12-08 03:21:00,SystemResetWarning,0818.9,5.01,000.00,024.8,023.8,000.0,033.1,026.1,10.9,0000.0,0005.06,0001.50,0001.05
2023-12-08 03:22:00,SystemResetWarning,0819.4,5.00,000.00,024.8,023.8,000.0,033.1,026.1,10.9,0000.0,0004.92,0001.51,0001.05
2023-12-08 03:23:00,SystemResetWarning,0819.1,5.00,000.00,024.8,023.8,000.0,033.1,026.1,10.9,0000.0,0004.85,0001.49,0001.04
2023-12-08 03:24:00,SystemResetWarning,0818.8,5.00,000.00,024.8,023.8,000.0,033.1,026.1,10.9,0000.0,0004.73,0001.47,0001.04
2023-12-08 03:25:00,SystemResetWarning,0818.7,5.00,000.00,024.8,023.8,000.0,033.1,026.1,11.0,0000.0,0003.96,0001.44,0001.04
2023-12-08 03:26:00,SystemResetWarning,0818.7,5.01,000.00,024.8,023.8,000.0,033.1,026.1,11.0,0000.0,0003.93,0001.44,0001.04
2023-12-08 03:27:00,SystemResetWarning,0818.8,5.00,000.00,024.8,023.8,000.0,033.1,026.2,11.0,0000.0,0003.77,0001.44,0001.04
2023-12-08 03:28:00,SystemResetWarning,0818.9,5.00,000.00,024.8,023.8,000.0,033.1,026.1,11.1,0000.0,0003.71,0001.44,0001.04
2023-12-08 03:29:00,SystemResetWarning,0819.2,5.00,000.00,024.8,023.8,000.0,033.1,026.2,11.1,0000.0,0003.02,0001.45,0001.05
2023-12-08 03:30:00,SystemResetWarning,0819.0,5.00,000.00,024.8,023.8,000.0,033.1,026.1,11.0,0000.0,0002.32,0001.43,0001.04
2023-12-08 03:31:00,SystemResetWarning,0819.0,5.00,000.00,024.8,023.8,000.0,033.1,026.1,11.0,0000.0,0002.30,0001.39,0001.03
2023-12-08 03:32:00,SystemResetWarning,0819.1,4.99,000.00,024.8,023.8,000.0,033.1,026.0,11.0,0000.0,0002.30,0001.38,0001.04
2023-12-08 03:33:00,SystemResetWarning,0818.7,5.00,000.00,024.7,023.8,000.0,033.1,026.0,11.0,0000.0,0002.66,0001.37,0001.03
2023-12-08 03:34:00,SystemResetWarning,0818.8,5.01,000.00,024.7,023.8,000.0,033.1,026.0,10.9,0000.0,0002.83,0001.36,0001.03
2023-12-08 03:35:00,SystemResetWarning,0819.1,5.01,000.00,024.7,023.8,000.0,033.1,026.1,10.9,0000.0,0002.86,0001.35,0001.03
2023-12-08 03:36:00,SystemResetWarning,0819.0,5.01,000.00,024.7,023.8,000.0,033.1,026.1,11.0,0000.0,0002.91,0001.38,0001.04
2023-12-08 03:37:00,SystemResetWarning,0818.9,5.00,000.00,024.7,023.8,000.0,033.0,026.1,11.0,0000.0,0002.83,0001.37,0001.04
2023-12-08 03:38:00,SystemResetWarning,0819.0,5.00,000.00,024.7,023.8,000.0,033.1,026.1,11.0,0000.0,0002.74,0001.33,0001.05
2023-12-08 03:39:00,SystemResetWarning,0819.2,4.99,000.00,024.7,023.8,000.0,033.0,026.1,10.9,0000.0,0002.74,0001.33,0001.05
2023-12-08 03:40:00,SystemResetWarning,0818.9,5.00,000.00,024.7,023.8,000.0,033.1,026.1,10.9,0000.0,0002.72,0001.32,0001.05
2023-12-08 03:41:00,SystemResetWarning,0819.0,5.00,000.00,024.7,023.8,000.0,033.0,026.1,11.0,0000.0,0002.70,0001.32,0001.04
2023-12-08 03:42:00,SystemResetWarning,0818.8,5.01,000.00,024.7,023.7,000.0,033.0,026.0,10.8,0000.0,0002.89,0001.33,0001.04
2023-12-08 03:43:00,SystemResetWarning,0818.9,5.01,000.00,024.7,023.7,000.0,033.0,026.0,10.8,0000.0,0003.76,0001.32,0001.03
2023-12-08 03:44:00,SystemResetWarning,0819.1,5.00,000.00,024.7,023.7,000.0,033.0,026.0,10.8,0000.0,0003.60,0001.32,0001.03
2023-12-08 03:45:00,SystemResetWarning,0819.2,5.00,000.00,024.7,023.7,000.0,033.0,026.0,10.8,0000.0,0003.87,0001.32,0001.03
2023-12-08 03:46:00,SystemResetWarning,0818.7,5.00,000.00,024.7,023.7,000.0,033.0,026.0,10.8,0000.0,0004.09,0001.36,0001.03
2023-12-08 03:47:00,SystemResetWarning,0818.8,5.00,000.00,024.7,023.7,000.0,033.0,026.0,10.8,0000.0,0004.20,0001.37,0001.02
2023-12-08 03:48:00,SystemResetWarning,0819.3,5.00,000.00,024.7,023.7,000.0,033.0,025.9,10.8,0000.0,0004.28,0001.39,0001.02
2023-12-08 03:49:00,SystemResetWarning,0818.8,4.99,000.00,024.7,023.7,000.0,033.0,026.0,10.8,0000.0,0004.82,0001.43,0001.02
2023-12-08 03:50:00,SystemResetWarning,0818.7,5.00,000.00,024.6,023.7,000.0,033.0,026.0,10.8,0000.0,0005.75,0001.43,0001.01
2023-12-08 03:51:00,SystemResetWarning,0818.8,5.00,000.00,024.6,023.7,000.0,033.0,026.0,10.9,0000.0,0005.78,0001.45,0001.01
2023-12-08 03:52:00,SystemResetWarning,0819.1,5.00,000.00,024.6,023.7,000.0,033.0,026.0,10.9,0000.0,0005.70,0001.41,0001.00
2023-12-08 03:53:00,SystemResetWarning,0819.0,5.00,000.00,024.6,023.7,000.0,033.0,026.0,10.9,0000.0,0005.67,0001.39,0000.98
2023-12-08 03:54:00,SystemResetWarning,0819.0,5.00,000.00,024.6,023.6,000.0,033.0,025.9,10.9,0000.0,0004.79,0001.38,0000.98
2023-12-08 03:55:00,SystemResetWarning,0818.8,5.00,000.00,024.6,023.6,000.0,033.0,025.9,10.9,0000.0,0004.42,0001.34,0000.97
2023-12-08 03:56:00,SystemResetWarning,0818.8,5.00,000.00,024.6,023.6,000.0,033.0,026.0,10.9,0000.0,0003.79,0001.32,0000.97
2023-12-08 03:57:00,SystemResetWarning,0818.7,5.00,000.00,024.6,023.6,000.0,033.0,026.0,10.9,0000.0,0003.57,0001.28,0000.96
2023-12-08 03:58:00,SystemResetWarning,0818.7,5.00,000.00,024.6,023.6,000.0,033.0,026.0,11.0,0000.0,0003.35,0001.24,0000.96
2023-12-08 03:59:00,SystemResetWarning,0819.0,5.00,000.00,024.6,023.6,000.0,033.0,026.0,11.0,0000.0,0003.20,0001.20,0000.96
